TimeEDT,TemperatureF,Dew PointF,Humidity,Sea Level PressureIn,VisibilityMPH,Wind Direction,Wind SpeedMPH,Gust SpeedMPH,PrecipitationIn,Events,Conditions,WindDirDegrees,DateUTC
12:15 AM,78.8,77.0,94,30.07,10.0,Calm,Calm,-,N/A,,Scattered Clouds,0,2013-06-16 04:15:00
12:35 AM,-9999,-9999,N/A,30.07,10.0,Calm,Calm,-,N/A,,Clear,0,2013-06-16 04:35:00
12:55 AM,-9999,-9999,N/A,30.08,10.0,Calm,Calm,-,N/A,,Scattered Clouds,0,2013-06-16 04:55:00
1:15 AM,-9999,-9999,N/A,30.08,10.0,Calm,Calm,-,N/A,,Scattered Clouds,0,2013-06-16 05:15:00
1:35 AM,-9999,-9999,N/A,30.08,10.0,Calm,Calm,-,N/A,,Clear,0,2013-06-16 05:35:00
1:55 AM,-9999,-9999,N/A,30.08,10.0,Calm,Calm,-,N/A,,Clear,0,2013-06-16 05:55:00
2:15 AM,-9999,-9999,N/A,30.08,10.0,Calm,Calm,-,N/A,,Clear,0,2013-06-16 06:15:00
2:35 AM,-9999,-9999,N/A,30.08,10.0,Calm,Calm,-,N/A,,Clear,0,2013-06-16 06:35:00
2:55 AM,-9999,-9999,N/A,30.08,10.0,Calm,Calm,-,N/A,,Scattered Clouds,0,2013-06-16 06:55:00
3:15 AM,-9999,-9999,N/A,30.09,10.0,Calm,Calm,-,N/A,,Overcast,0,2013-06-16 07:15:00
3:35 AM,-9999,-9999,N/A,30.08,10.0,Calm,Calm,-,N/A,,Overcast,0,2013-06-16 07:35:00
3:55 AM,-9999,-9999,N/A,30.08,10.0,Calm,Calm,-,N/A,,Overcast,0,2013-06-16 07:55:00
4:15 AM,-9999,-9999,N/A,30.09,10.0,Calm,Calm,-,N/A,,Mostly Cloudy,0,2013-06-16 08:15:00
4:35 AM,-9999,-9999,N/A,30.09,10.0,Calm,Calm,-,N/A,,Scattered Clouds,0,2013-06-16 08:35:00
4:55 AM,-9999,-9999,N/A,30.08,10.0,Calm,Calm,-,N/A,,Scattered Clouds,0,2013-06-16 08:55:00
5:15 AM,-9999,-9999,N/A,30.08,10.0,Calm,Calm,-,N/A,,Scattered Clouds,0,2013-06-16 09:15:00
5:35 AM,-9999,-9999,N/A,30.09,10.0,Calm,Calm,-,N/A,,Scattered Clouds,0,2013-06-16 09:35:00
5:55 AM,-9999,-9999,N/A,30.09,10.0,Calm,Calm,-,N/A,,Clear,0,2013-06-16 09:55:00
6:15 AM,-9999,-9999,N/A,30.09,10.0,Calm,Calm,-,N/A,,Clear,0,2013-06-16 10:15:00
6:35 AM,-9999,-9999,N/A,30.11,10.0,Calm,Calm,-,N/A,,Clear,0,2013-06-16 10:35:00
6:55 AM,-9999,-9999,N/A,30.11,10.0,Calm,Calm,-,N/A,,Clear,0,2013-06-16 10:55:00
7:15 AM,-9999,-9999,N/A,30.11,10.0,Calm,Calm,-,N/A,,Clear,0,2013-06-16 11:15:00
7:35 AM,-9999,-9999,N/A,30.11,10.0,Calm,Calm,-,N/A,,Clear,0,2013-06-16 11:35:00
7:55 AM,-9999,-9999,N/A,30.12,10.0,Calm,Calm,-,N/A,,Clear,0,2013-06-16 11:55:00
8:15 AM,-9999,-9999,N/A,30.12,10.0,Calm,Calm,-,N/A,,Clear,0,2013-06-16 12:15:00
8:35 AM,-9999,-9999,N/A,30.13,7.0,Calm,Calm,-,N/A,,Clear,0,2013-06-16 12:35:00
8:55 AM,-9999,-9999,N/A,30.12,7.0,Calm,Calm,-,N/A,,Clear,0,2013-06-16 12:55:00
9:15 AM,-9999,-9999,N/A,30.12,10.0,SE,5.8,-,N/A,,Clear,140,2013-06-16 13:15:00
9:35 AM,-9999,-9999,N/A,30.13,10.0,Calm,Calm,-,N/A,,Clear,0,2013-06-16 13:35:00
9:55 AM,-9999,-9999,N/A,30.13,7.0,Calm,Calm,-,N/A,,Clear,0,2013-06-16 13:55:00
10:15 AM,-9999,-9999,N/A,30.13,10.0,Calm,Calm,-,N/A,,Clear,0,2013-06-16 14:15:00
10:35 AM,-9999,-9999,N/A,30.13,7.0,Calm,Calm,-,N/A,,Clear,0,2013-06-16 14:35:00
10:55 AM,-9999,-9999,N/A,30.12,10.0,Calm,Calm,-,N/A,,Clear,0,2013-06-16 14:55:00
11:15 AM,-9999,-9999,N/A,30.13,10.0,Calm,Calm,-,N/A,,Scattered Clouds,0,2013-06-16 15:15:00
11:35 AM,-9999,-9999,N/A,30.13,10.0,Calm,Calm,-,N/A,,Scattered Clouds,0,2013-06-16 15:35:00
11:55 AM,-9999,-9999,N/A,30.12,10.0,Calm,Calm,-,N/A,,Clear,0,2013-06-16 15:55:00
12:15 PM,-9999,-9999,N/A,30.12,10.0,Calm,Calm,-,N/A,,Clear,0,2013-06-16 16:15:00
12:35 PM,-9999,-9999,N/A,30.12,10.0,Calm,Calm,-,N/A,,Scattered Clouds,0,2013-06-16 16:35:00
12:55 PM,-9999,-9999,N/A,30.11,10.0,SSE,3.5,-,N/A,,Scattered Clouds,150,2013-06-16 16:55:00
1:15 PM,-9999,-9999,N/A,30.10,10.0,Calm,Calm,-,N/A,,Scattered Clouds,0,2013-06-16 17:15:00
1:35 PM,-9999,-9999,N/A,30.09,10.0,Calm,Calm,-,N/A,,Scattered Clouds,0,2013-06-16 17:35:00
1:55 PM,-9999,-9999,N/A,30.08,10.0,Calm,Calm,-,N/A,,Clear,0,2013-06-16 17:55:00
2:15 PM,-9999,-9999,N/A,30.07,10.0,East,4.6,-,N/A,,Clear,80,2013-06-16 18:15:00
2:35 PM,-9999,-9999,N/A,30.07,10.0,SSE,4.6,-,N/A,,Clear,160,2013-06-16 18:35:00
2:55 PM,-9999,-9999,N/A,30.05,10.0,SE,3.5,-,N/A,,Clear,130,2013-06-16 18:55:00
3:15 PM,-9999,-9999,N/A,30.05,10.0,Calm,Calm,-,N/A,,Clear,0,2013-06-16 19:15:00
3:35 PM,-9999,-9999,N/A,30.04,10.0,South,3.5,-,N/A,,Clear,190,2013-06-16 19:35:00
3:55 PM,-9999,-9999,N/A,30.04,10.0,Calm,Calm,-,N/A,,Clear,0,2013-06-16 19:55:00
4:15 PM,-9999,-9999,N/A,30.04,10.0,Calm,Calm,-,N/A,,Clear,0,2013-06-16 20:15:00
4:35 PM,-9999,-9999,N/A,30.03,10.0,South,3.5,-,N/A,,Scattered Clouds,170,2013-06-16 20:35:00
4:55 PM,-9999,-9999,N/A,30.03,10.0,Calm,Calm,-,N/A,,Scattered Clouds,0,2013-06-16 20:55:00
5:15 PM,-9999,-9999,N/A,30.02,10.0,SE,3.5,-,N/A,,Clear,140,2013-06-16 21:15:00
5:35 PM,-9999,-9999,N/A,30.02,10.0,Calm,Calm,-,N/A,,Clear,0,2013-06-16 21:35:00
5:55 PM,-9999,-9999,N/A,30.02,10.0,South,4.6,-,N/A,,Scattered Clouds,170,2013-06-16 21:55:00
6:15 PM,-9999,-9999,N/A,30.02,10.0,Calm,Calm,-,N/A,,Overcast,0,2013-06-16 22:15:00
6:35 PM,-9999,-9999,N/A,30.01,10.0,Calm,Calm,-,N/A,,Overcast,0,2013-06-16 22:35:00
6:55 PM,-9999,-9999,N/A,30.02,10.0,South,3.5,-,N/A,,Mostly Cloudy,180,2013-06-16 22:55:00
7:15 PM,-9999,-9999,N/A,30.02,10.0,Calm,Calm,-,N/A,,Clear,0,2013-06-16 23:15:00
7:35 PM,-9999,-9999,N/A,30.02,10.0,Calm,Calm,-,N/A,,Clear,0,2013-06-16 23:35:00
7:55 PM,-9999,-9999,N/A,30.02,10.0,Calm,Calm,-,N/A,,Clear,0,2013-06-16 23:55:00
8:15 PM,-9999,-9999,N/A,30.02,10.0,Calm,Calm,-,N/A,,Clear,0,2013-06-17 00:15:00
8:35 PM,-9999,-9999,N/A,30.03,10.0,Calm,Calm,-,N/A,,Clear,0,2013-06-17 00:35:00
8:55 PM,-9999,-9999,N/A,30.03,10.0,Calm,Calm,-,N/A,,Clear,0,2013-06-17 00:55:00
9:15 PM,-9999,-9999,N/A,30.04,10.0,Calm,Calm,-,N/A,,Scattered Clouds,0,2013-06-17 01:15:00
9:35 PM,-9999,-9999,N/A,30.05,10.0,Calm,Calm,-,N/A,Thunderstorm,Scattered Clouds,0,2013-06-17 01:35:00
9:55 PM,-9999,-9999,N/A,30.04,10.0,Calm,Calm,-,N/A,,Mostly Cloudy,0,2013-06-17 01:55:00
10:15 PM,-9999,-9999,N/A,30.05,10.0,Calm,Calm,-,N/A,,Mostly Cloudy,0,2013-06-17 02:15:00
10:35 PM,-9999,-9999,N/A,30.05,10.0,Calm,Calm,-,N/A,,Scattered Clouds,0,2013-06-17 02:35:00
10:55 PM,-9999,-9999,N/A,30.05,10.0,Calm,Calm,-,N/A,,Scattered Clouds,0,2013-06-17 02:55:00
11:15 PM,-9999,-9999,N/A,30.06,10.0,Calm,Calm,-,N/A,,Scattered Clouds,0,2013-06-17 03:15:00
11:35 PM,-9999,-9999,N/A,30.05,10.0,Calm,Calm,-,N/A,,Scattered Clouds,0,2013-06-17 03:35:00
11:55 PM,-9999,-9999,N/A,30.06,10.0,Calm,Calm,-,N/A,,Mostly Cloudy,0,2013-06-17 03:55:00